FLOCK 4E'-6

Last updated on Sat Nov 28 2020 00:02:02 GMT+0000 (Coordinated Universal Time)

1 46822U 20077K 20332.60493652 .00004539 00000-0 23340-3 0 9999 2 46822 97.4916 32.7033 0012430 193.7080 166.3817 15.16897875 4504

Satellite not in orbit

FLOCK 4E'-6